Year,Month,Day,Hour,Minute,Value (Times are PST for temperature in C)
2011,04,10,00,00,7.90
2011,04,10,00,01,7.90
2011,04,10,00,02,7.90
2011,04,10,00,03,7.90
2011,04,10,00,04,7.90
2011,04,10,00,05,7.90
2011,04,10,00,06,7.90
2011,04,10,00,07,7.90
2011,04,10,00,08,7.90
2011,04,10,00,09,7.90
2011,04,10,00,10,7.90
2011,04,10,00,11,7.90
2011,04,10,00,12,7.90
2011,04,10,00,13,7.90
2011,04,10,00,14,7.90
2011,04,10,00,15,7.90
2011,04,10,00,16,7.90
2011,04,10,00,17,7.90
2011,04,10,00,18,7.90
2011,04,10,00,19,7.90
2011,04,10,00,20,7.90
2011,04,10,00,21,7.90
2011,04,10,00,22,7.90
2011,04,10,00,23,7.90
2011,04,10,00,24,7.90
2011,04,10,00,25,7.80
2011,04,10,00,26,7.80
2011,04,10,00,27,7.80
2011,04,10,00,28,7.80
2011,04,10,00,29,7.80
2011,04,10,00,30,7.80
2011,04,10,00,31,7.80
2011,04,10,00,32,7.80
2011,04,10,00,33,7.80
2011,04,10,00,34,7.80
2011,04,10,00,35,7.80
2011,04,10,00,36,7.80
2011,04,10,00,37,7.70
2011,04,10,00,38,7.70
2011,04,10,00,39,7.70
2011,04,10,00,40,7.80
2011,04,10,00,41,7.70
2011,04,10,00,42,7.70
2011,04,10,00,43,7.70
2011,04,10,00,44,7.70
2011,04,10,00,45,7.70
2011,04,10,00,46,7.70
2011,04,10,00,47,7.70
2011,04,10,00,48,7.70
2011,04,10,00,49,7.70
2011,04,10,00,50,7.60
2011,04,10,00,51,7.60
2011,04,10,00,52,7.60
2011,04,10,00,53,7.60
2011,04,10,00,54,7.60
2011,04,10,00,55,7.60
2011,04,10,00,56,7.60
2011,04,10,00,57,7.60
2011,04,10,00,58,7.60
2011,04,10,00,59,7.60
2011,04,10,01,00,7.60
2011,04,10,01,01,7.60
2011,04,10,01,02,7.60
2011,04,10,01,03,7.60
2011,04,10,01,04,7.60
2011,04,10,01,05,7.60
2011,04,10,01,06,7.60
2011,04,10,01,07,7.60
2011,04,10,01,08,7.60
2011,04,10,01,09,7.60
2011,04,10,01,10,7.60
2011,04,10,01,11,7.60
2011,04,10,01,12,7.60
2011,04,10,01,13,7.60
2011,04,10,01,14,7.60
2011,04,10,01,15,7.60
2011,04,10,01,16,7.60
2011,04,10,01,17,7.60
2011,04,10,01,18,7.60
2011,04,10,01,19,7.60
2011,04,10,01,20,7.60
2011,04,10,01,21,7.60
2011,04,10,01,22,7.60
2011,04,10,01,23,7.60
2011,04,10,01,24,7.60
2011,04,10,01,25,7.60
2011,04,10,01,26,7.60
2011,04,10,01,27,7.50
2011,04,10,01,28,7.50
2011,04,10,01,29,7.50
2011,04,10,01,30,7.50
2011,04,10,01,31,7.40
2011,04,10,01,32,7.40
2011,04,10,01,33,7.40
2011,04,10,01,34,7.40
2011,04,10,01,35,7.40
2011,04,10,01,36,7.40
2011,04,10,01,37,7.40
2011,04,10,01,38,7.40
2011,04,10,01,39,7.40
2011,04,10,01,40,7.40
2011,04,10,01,41,7.40
2011,04,10,01,42,7.40
2011,04,10,01,43,7.40
2011,04,10,01,44,7.40
2011,04,10,01,45,7.40
2011,04,10,01,46,7.40
2011,04,10,01,47,7.40
2011,04,10,01,48,7.40
2011,04,10,01,49,7.40
2011,04,10,01,50,7.40
2011,04,10,01,51,7.40
2011,04,10,01,52,7.40
2011,04,10,01,53,7.40
2011,04,10,01,54,7.40
2011,04,10,01,55,7.40
2011,04,10,01,56,7.40
2011,04,10,01,57,7.40
2011,04,10,01,58,7.40
2011,04,10,01,59,7.50
2011,04,10,02,00,7.50
2011,04,10,02,01,7.50
2011,04,10,02,02,7.50
2011,04,10,02,03,7.50
2011,04,10,02,04,7.50
2011,04,10,02,05,7.50
2011,04,10,02,06,7.50
2011,04,10,02,07,7.50
2011,04,10,02,08,7.50
2011,04,10,02,09,7.60
2011,04,10,02,10,7.60
2011,04,10,02,11,7.60
2011,04,10,02,12,7.60
2011,04,10,02,13,7.60
2011,04,10,02,14,7.60
2011,04,10,02,15,7.60
2011,04,10,02,16,7.60
2011,04,10,02,17,7.60
2011,04,10,02,18,7.60
2011,04,10,02,19,7.60
2011,04,10,02,20,7.60
2011,04,10,02,21,7.60
2011,04,10,02,22,7.60
2011,04,10,02,23,7.60
2011,04,10,02,24,7.60
2011,04,10,02,25,7.60
2011,04,10,02,26,7.60
2011,04,10,02,27,7.60
2011,04,10,02,28,7.60
2011,04,10,02,29,7.60
2011,04,10,02,30,7.60
2011,04,10,02,31,7.60
2011,04,10,02,32,7.60
2011,04,10,02,33,7.60
2011,04,10,02,34,7.60
2011,04,10,02,35,7.60
2011,04,10,02,36,7.60
2011,04,10,02,37,7.50
2011,04,10,02,38,7.50
2011,04,10,02,39,7.50
2011,04,10,02,40,7.50
2011,04,10,02,41,7.50
2011,04,10,02,42,7.40
2011,04,10,02,43,7.40
2011,04,10,02,44,7.40
2011,04,10,02,45,7.40
2011,04,10,02,46,7.40
2011,04,10,02,47,7.40
2011,04,10,02,48,7.40
2011,04,10,02,49,7.40
2011,04,10,02,50,7.30
2011,04,10,02,51,7.30
2011,04,10,02,52,7.30
2011,04,10,02,53,7.30
2011,04,10,02,54,7.30
2011,04,10,02,55,7.30
2011,04,10,02,56,7.30
2011,04,10,02,57,7.30
2011,04,10,02,58,7.30
2011,04,10,02,59,7.30
2011,04,10,03,00,7.30
2011,04,10,03,01,7.30
2011,04,10,03,02,7.20
2011,04,10,03,03,7.20
2011,04,10,03,04,7.20
2011,04,10,03,05,7.20
2011,04,10,03,06,7.20
2011,04,10,03,07,7.20
2011,04,10,03,08,7.20
2011,04,10,03,09,7.20
2011,04,10,03,10,7.20
2011,04,10,03,11,7.20
2011,04,10,03,12,7.20
2011,04,10,03,13,7.20
2011,04,10,03,14,7.20
2011,04,10,03,15,7.20
2011,04,10,03,16,7.20
2011,04,10,03,17,7.20
2011,04,10,03,18,7.20
2011,04,10,03,19,7.20
2011,04,10,03,20,7.20
2011,04,10,03,21,7.20
2011,04,10,03,22,7.20
2011,04,10,03,23,7.10
2011,04,10,03,24,7.10
2011,04,10,03,25,7.10
2011,04,10,03,26,7.10
2011,04,10,03,27,7.10
2011,04,10,03,28,7.10
2011,04,10,03,29,7.10
2011,04,10,03,30,7.10
2011,04,10,03,31,7.10
2011,04,10,03,32,7.10
2011,04,10,03,33,7.00
2011,04,10,03,34,7.00
2011,04,10,03,35,7.00
2011,04,10,03,36,7.00
2011,04,10,03,37,7.00
2011,04,10,03,38,7.00
2011,04,10,03,39,7.00
2011,04,10,03,40,7.00
2011,04,10,03,41,7.00
2011,04,10,03,42,6.90
2011,04,10,03,43,6.90
2011,04,10,03,44,6.90
2011,04,10,03,45,6.90
2011,04,10,03,46,6.90
2011,04,10,03,47,6.90
2011,04,10,03,48,6.90
2011,04,10,03,49,6.90
2011,04,10,03,50,6.90
2011,04,10,03,51,6.90
2011,04,10,03,52,6.90
2011,04,10,03,53,6.90
2011,04,10,03,54,6.90
2011,04,10,03,55,6.90
2011,04,10,03,56,6.90
2011,04,10,03,57,6.90
2011,04,10,03,58,6.90
2011,04,10,03,59,6.90
2011,04,10,04,00,6.90
2011,04,10,04,01,6.90
2011,04,10,04,02,6.80
2011,04,10,04,03,6.80
2011,04,10,04,04,6.90
2011,04,10,04,05,6.80
2011,04,10,04,06,6.80
2011,04,10,04,07,6.80
2011,04,10,04,08,6.90
2011,04,10,04,09,6.90
2011,04,10,04,10,6.90
2011,04,10,04,11,6.90
2011,04,10,04,12,6.90
2011,04,10,04,13,6.90
2011,04,10,04,14,6.90
2011,04,10,04,15,6.90
2011,04,10,04,16,6.90
2011,04,10,04,17,6.90
2011,04,10,04,18,6.90
2011,04,10,04,19,6.90
2011,04,10,04,20,6.90
2011,04,10,04,21,6.90
2011,04,10,04,22,6.90
2011,04,10,04,23,6.90
2011,04,10,04,24,6.90
2011,04,10,04,25,6.90
2011,04,10,04,26,6.90
2011,04,10,04,27,6.90
2011,04,10,04,28,6.90
2011,04,10,04,29,6.90
2011,04,10,04,30,6.90
2011,04,10,04,31,6.90
2011,04,10,04,32,6.90
2011,04,10,04,33,6.90
2011,04,10,04,34,6.90
2011,04,10,04,35,6.90
2011,04,10,04,36,6.90
2011,04,10,04,37,6.90
2011,04,10,04,38,6.90
2011,04,10,04,39,6.80
2011,04,10,04,40,6.80
2011,04,10,04,41,6.80
2011,04,10,04,42,6.80
2011,04,10,04,43,6.80
2011,04,10,04,44,6.80
2011,04,10,04,45,6.80
2011,04,10,04,46,6.80
2011,04,10,04,47,6.80
2011,04,10,04,48,6.80
2011,04,10,04,49,6.80
2011,04,10,04,50,6.80
2011,04,10,04,51,6.80
2011,04,10,04,52,6.80
2011,04,10,04,53,6.80
2011,04,10,04,54,6.80
2011,04,10,04,55,6.80
2011,04,10,04,56,6.80
2011,04,10,04,57,6.80
2011,04,10,04,58,6.80
2011,04,10,04,59,6.80
2011,04,10,05,00,6.80
2011,04,10,05,01,6.80
2011,04,10,05,02,6.80
2011,04,10,05,03,6.80
2011,04,10,05,04,6.80
2011,04,10,05,05,6.80
2011,04,10,05,06,6.80
2011,04,10,05,07,6.80
2011,04,10,05,08,6.80
2011,04,10,05,09,6.80
2011,04,10,05,10,6.80
2011,04,10,05,11,6.80
2011,04,10,05,12,6.80
2011,04,10,05,13,6.80
2011,04,10,05,14,6.80
2011,04,10,05,15,6.80
2011,04,10,05,16,6.80
2011,04,10,05,17,6.80
2011,04,10,05,18,6.80
2011,04,10,05,19,6.80
2011,04,10,05,20,6.80
2011,04,10,05,21,6.80
2011,04,10,05,22,6.80
2011,04,10,05,23,6.80
2011,04,10,05,24,6.80
2011,04,10,05,25,6.80
2011,04,10,05,26,6.80
2011,04,10,05,27,6.80
2011,04,10,05,28,6.80
2011,04,10,05,29,6.80
2011,04,10,05,30,6.80
2011,04,10,05,31,6.80
2011,04,10,05,32,6.80
2011,04,10,05,33,6.80
2011,04,10,05,34,6.80
2011,04,10,05,35,6.80
2011,04,10,05,36,6.80
2011,04,10,05,37,6.80
2011,04,10,05,38,6.80
2011,04,10,05,39,6.80
2011,04,10,05,40,6.80
2011,04,10,05,41,6.80
2011,04,10,05,42,6.80
2011,04,10,05,43,6.80
2011,04,10,05,44,6.80
2011,04,10,05,45,6.80
2011,04,10,05,46,6.80
2011,04,10,05,47,6.80
2011,04,10,05,48,6.80
2011,04,10,05,49,6.80
2011,04,10,05,50,6.80
2011,04,10,05,51,6.80
2011,04,10,05,52,6.80
2011,04,10,05,53,6.80
2011,04,10,05,54,6.80
2011,04,10,05,55,6.80
2011,04,10,05,56,6.80
2011,04,10,05,57,6.80
2011,04,10,05,58,6.80
2011,04,10,05,59,6.80
2011,04,10,06,00,6.80
2011,04,10,06,01,6.80
2011,04,10,06,02,6.80
2011,04,10,08,55,6.70
2011,04,10,08,56,6.70
2011,04,10,08,57,6.70
2011,04,10,08,58,6.70
2011,04,10,08,59,6.70
2011,04,10,09,00,6.80
2011,04,10,09,01,6.80
2011,04,10,09,02,6.80
2011,04,10,09,03,6.80
2011,04,10,09,04,6.80
2011,04,10,09,05,6.80
2011,04,10,09,06,6.80
2011,04,10,09,07,6.80
2011,04,10,09,08,6.80
2011,04,10,09,09,6.80
2011,04,10,09,10,6.80
2011,04,10,09,11,6.80
2011,04,10,09,12,6.80
2011,04,10,09,13,6.80
2011,04,10,09,14,6.90
2011,04,10,09,15,6.80
2011,04,10,09,16,6.80
2011,04,10,09,17,6.80
2011,04,10,09,18,6.80
2011,04,10,09,19,6.80
2011,04,10,09,20,6.80
2011,04,10,09,21,6.80
2011,04,10,09,22,6.80
2011,04,10,09,23,6.80
2011,04,10,09,24,6.80
2011,04,10,09,25,6.90
2011,04,10,09,26,6.90
2011,04,10,09,27,6.90
2011,04,10,09,28,6.80
2011,04,10,09,29,6.80
2011,04,10,09,30,6.80
2011,04,10,09,31,6.80
2011,04,10,09,32,6.80
2011,04,10,09,33,6.80
2011,04,10,09,34,6.80
2011,04,10,09,35,6.80
2011,04,10,09,36,6.80
2011,04,10,09,37,6.80
2011,04,10,09,38,6.80
2011,04,10,09,39,6.80
2011,04,10,09,40,6.80
2011,04,10,09,41,6.90
2011,04,10,09,42,6.90
2011,04,10,09,43,6.90
2011,04,10,09,44,6.90
2011,04,10,09,45,6.90
2011,04,10,09,46,6.90
2011,04,10,09,47,6.90
2011,04,10,09,48,6.90
2011,04,10,09,49,7.00
2011,04,10,09,50,7.00
2011,04,10,09,51,6.90
2011,04,10,09,52,6.90
2011,04,10,09,53,6.90
2011,04,10,09,54,6.90
2011,04,10,09,55,6.90
2011,04,10,09,56,6.90
2011,04,10,09,57,7.00
2011,04,10,09,58,7.00
2011,04,10,09,59,7.00
2011,04,10,10,00,7.10
2011,04,10,10,01,7.00
2011,04,10,10,02,7.00
2011,04,10,10,03,7.00
2011,04,10,10,04,7.00
2011,04,10,10,05,7.00
2011,04,10,10,06,7.00
2011,04,10,10,07,7.00
2011,04,10,10,08,7.10
2011,04,10,10,09,7.10
2011,04,10,10,10,7.10
2011,04,10,10,11,7.10
2011,04,10,10,12,7.10
2011,04,10,10,13,7.10
2011,04,10,10,14,7.10
2011,04,10,10,15,7.10
2011,04,10,10,16,7.10
2011,04,10,10,17,7.10
2011,04,10,10,18,7.10
2011,04,10,10,19,7.20
2011,04,10,10,20,7.20
2011,04,10,10,21,7.20
2011,04,10,10,22,7.20
2011,04,10,10,23,7.20
2011,04,10,10,24,7.20
2011,04,10,10,25,7.20
2011,04,10,10,26,7.20
2011,04,10,10,27,7.20
2011,04,10,10,28,7.20
2011,04,10,10,29,7.20
2011,04,10,10,30,7.20
2011,04,10,10,31,7.20
2011,04,10,10,32,7.20
2011,04,10,10,33,7.20
2011,04,10,10,34,7.20
2011,04,10,10,35,7.20
2011,04,10,10,36,7.20
2011,04,10,10,37,7.20
2011,04,10,10,38,7.20
2011,04,10,10,39,7.20
2011,04,10,10,40,7.20
2011,04,10,10,41,7.20
2011,04,10,10,42,7.20
2011,04,10,10,43,7.20
2011,04,10,10,44,7.20
2011,04,10,10,45,7.30
2011,04,10,10,46,7.30
2011,04,10,10,47,7.30
2011,04,10,10,48,7.30
2011,04,10,10,49,7.30
2011,04,10,10,50,7.30
2011,04,10,10,51,7.30
2011,04,10,10,52,7.30
2011,04,10,10,53,7.30
2011,04,10,10,54,7.30
2011,04,10,10,55,7.30
2011,04,10,10,56,7.20
2011,04,10,10,57,7.20
2011,04,10,10,58,7.20
2011,04,10,10,59,7.20
2011,04,10,11,00,7.20
2011,04,10,11,01,7.20
2011,04,10,11,02,7.20
2011,04,10,11,03,7.20
2011,04,10,11,04,7.20
2011,04,10,11,05,7.20
2011,04,10,11,06,7.20
2011,04,10,11,07,7.20
2011,04,10,11,08,7.20
2011,04,10,11,09,7.20
2011,04,10,11,10,7.20
2011,04,10,11,11,7.30
2011,04,10,11,12,7.30
2011,04,10,11,13,7.30
2011,04,10,11,14,7.30
2011,04,10,11,15,7.30
2011,04,10,11,16,7.30
2011,04,10,11,17,7.30
2011,04,10,11,18,7.30
2011,04,10,11,19,7.30
2011,04,10,11,20,7.30
2011,04,10,11,21,7.40
2011,04,10,11,22,7.40
2011,04,10,11,23,7.40
2011,04,10,11,24,7.40
2011,04,10,11,25,7.40
2011,04,10,11,26,7.40
2011,04,10,11,27,7.40
2011,04,10,11,28,7.40
2011,04,10,11,29,7.40
2011,04,10,11,30,7.50
2011,04,10,11,31,7.50
2011,04,10,11,32,7.50
2011,04,10,11,33,7.60
2011,04,10,11,34,7.60
2011,04,10,11,35,7.60
2011,04,10,11,36,7.60
2011,04,10,11,37,7.60
2011,04,10,11,38,7.60
2011,04,10,11,39,7.60
2011,04,10,11,40,7.60
2011,04,10,11,41,7.60
2011,04,10,11,42,7.60
2011,04,10,11,43,7.60
2011,04,10,11,44,7.60
2011,04,10,11,45,7.60
2011,04,10,11,46,7.60
2011,04,10,11,47,7.60
2011,04,10,11,48,7.60
2011,04,10,11,49,7.60
2011,04,10,11,50,7.60
2011,04,10,11,51,7.60
2011,04,10,11,52,7.60
2011,04,10,11,53,7.60
2011,04,10,11,54,7.60
2011,04,10,11,55,7.60
2011,04,10,11,56,7.60
2011,04,10,11,57,7.60
2011,04,10,11,58,7.70
2011,04,10,11,59,7.70
2011,04,10,12,00,7.70
2011,04,10,12,01,7.70
2011,04,10,12,02,7.70
2011,04,10,12,03,7.70
2011,04,10,12,04,7.70
2011,04,10,12,05,7.70
2011,04,10,12,06,7.70
2011,04,10,12,07,7.70
2011,04,10,12,08,7.70
2011,04,10,12,09,7.70
2011,04,10,12,10,7.70
2011,04,10,12,11,7.70
2011,04,10,12,12,7.70
2011,04,10,12,13,7.70
2011,04,10,12,14,7.70
2011,04,10,12,15,7.70
2011,04,10,12,16,7.80
2011,04,10,12,17,7.80
2011,04,10,12,18,7.80
2011,04,10,12,19,7.80
2011,04,10,12,20,7.80
2011,04,10,12,21,7.80
2011,04,10,12,22,7.80
2011,04,10,12,23,7.80
2011,04,10,12,24,7.90
2011,04,10,12,25,7.80
2011,04,10,12,26,7.90
2011,04,10,12,27,7.90
2011,04,10,12,28,7.90
2011,04,10,12,29,8.00
2011,04,10,12,30,8.00
2011,04,10,12,31,8.00
2011,04,10,12,32,8.00
2011,04,10,12,33,8.00
2011,04,10,12,34,8.00
2011,04,10,12,35,8.10
2011,04,10,12,36,8.10
2011,04,10,12,37,8.10
2011,04,10,12,38,8.20
2011,04,10,12,39,8.20
2011,04,10,12,40,8.20
2011,04,10,12,41,8.20
2011,04,10,12,42,8.30
2011,04,10,12,43,8.30
2011,04,10,12,44,8.40
2011,04,10,12,45,8.40
2011,04,10,12,46,8.40
2011,04,10,12,47,8.40
2011,04,10,12,48,8.40
2011,04,10,12,49,8.40
2011,04,10,12,50,8.50
2011,04,10,12,51,8.50
2011,04,10,12,52,8.60
2011,04,10,12,53,8.60
2011,04,10,12,54,8.60
2011,04,10,12,55,8.60
2011,04,10,12,56,8.70
2011,04,10,12,57,8.70
2011,04,10,12,58,8.70
2011,04,10,12,59,8.60
2011,04,10,13,00,8.60
2011,04,10,13,01,8.70
2011,04,10,13,02,8.70
2011,04,10,13,03,8.70
2011,04,10,13,04,8.80
2011,04,10,13,05,8.80
2011,04,10,13,06,8.80
2011,04,10,13,07,8.80
2011,04,10,13,08,8.90
2011,04,10,13,09,8.90
2011,04,10,13,10,8.90
2011,04,10,13,11,8.90
2011,04,10,13,12,8.80
2011,04,10,13,13,8.80
2011,04,10,13,14,8.80
2011,04,10,13,15,8.80
2011,04,10,13,16,8.80
2011,04,10,13,17,8.80
2011,04,10,13,18,8.90
2011,04,10,13,19,8.90
2011,04,10,13,20,8.90
2011,04,10,13,21,8.90
2011,04,10,13,22,8.90
2011,04,10,13,23,8.90
2011,04,10,13,24,8.90
2011,04,10,13,25,8.90
2011,04,10,13,26,8.80
2011,04,10,13,27,8.90
2011,04,10,13,28,8.80
2011,04,10,13,29,8.80
2011,04,10,13,30,8.80
2011,04,10,13,31,8.80
2011,04,10,13,32,8.80
2011,04,10,13,33,8.80
2011,04,10,13,34,8.80
2011,04,10,13,35,8.80
2011,04,10,13,36,8.80
2011,04,10,13,37,8.90
2011,04,10,13,38,8.80
2011,04,10,13,39,8.80
2011,04,10,13,40,8.80
2011,04,10,13,41,8.80
2011,04,10,13,42,8.80
2011,04,10,13,43,8.80
2011,04,10,13,44,8.80
2011,04,10,13,45,8.80
2011,04,10,13,46,8.90
2011,04,10,13,47,8.90
2011,04,10,13,48,8.90
2011,04,10,13,49,8.90
2011,04,10,13,50,8.90
2011,04,10,13,51,8.90
2011,04,10,13,52,8.90
2011,04,10,13,53,8.90
2011,04,10,13,54,8.90
2011,04,10,13,55,8.90
2011,04,10,13,56,8.90
2011,04,10,13,57,9.00
2011,04,10,13,58,9.00
2011,04,10,13,59,9.00
2011,04,10,14,00,9.00
2011,04,10,14,01,9.00
2011,04,10,14,02,9.00
2011,04,10,14,03,9.00
2011,04,10,14,04,9.00
2011,04,10,14,05,9.00
2011,04,10,14,06,9.00
2011,04,10,14,07,9.00
2011,04,10,14,08,9.00
2011,04,10,14,09,8.90
2011,04,10,14,10,8.90
2011,04,10,14,11,8.90
2011,04,10,14,12,8.90
2011,04,10,14,13,8.90
2011,04,10,14,14,8.90
2011,04,10,14,15,8.90
2011,04,10,14,16,8.90
2011,04,10,14,17,8.90
2011,04,10,14,18,8.90
2011,04,10,14,19,8.90
2011,04,10,14,20,8.90
2011,04,10,14,21,8.80
2011,04,10,14,22,8.80
2011,04,10,14,23,8.80
2011,04,10,14,24,8.80
2011,04,10,14,25,8.80
2011,04,10,14,26,8.80
2011,04,10,14,27,8.80
2011,04,10,14,28,8.80
2011,04,10,14,29,8.80
2011,04,10,14,30,8.80
2011,04,10,14,31,8.80
2011,04,10,14,32,8.80
2011,04,10,14,33,8.70
2011,04,10,14,34,8.70
2011,04,10,14,35,8.70
2011,04,10,14,36,8.70
2011,04,10,14,37,8.70
2011,04,10,14,38,8.70
2011,04,10,14,39,8.70
2011,04,10,14,40,8.70
2011,04,10,14,41,8.70
2011,04,10,14,42,8.70
2011,04,10,14,43,8.70
2011,04,10,14,44,8.70
2011,04,10,14,45,8.70
2011,04,10,14,46,8.70
2011,04,10,14,47,8.70
2011,04,10,14,48,8.70
2011,04,10,14,49,8.70
2011,04,10,14,50,8.70
2011,04,10,14,51,8.60
2011,04,10,14,52,8.60
2011,04,10,14,53,8.60
2011,04,10,14,54,8.70
2011,04,10,14,55,8.60
2011,04,10,14,56,8.60
2011,04,10,14,57,8.60
2011,04,10,14,58,8.60
2011,04,10,14,59,8.60
2011,04,10,15,00,8.60
2011,04,10,15,01,8.60
2011,04,10,15,02,8.60
2011,04,10,15,03,8.60
2011,04,10,15,04,8.60
2011,04,10,15,05,8.60
2011,04,10,15,06,8.60
2011,04,10,15,07,8.60
2011,04,10,15,08,8.60
2011,04,10,15,09,8.70
2011,04,10,15,10,8.70
2011,04,10,15,11,8.70
2011,04,10,15,12,8.70
2011,04,10,15,13,8.70
2011,04,10,15,14,8.70
2011,04,10,15,15,8.70
2011,04,10,15,16,8.70
2011,04,10,15,17,8.70
2011,04,10,15,18,8.80
2011,04,10,15,19,8.80
2011,04,10,15,20,8.80
2011,04,10,15,21,8.80
2011,04,10,15,22,8.80
2011,04,10,15,23,8.80
2011,04,10,15,24,8.80
2011,04,10,15,25,8.80
2011,04,10,15,26,8.90
2011,04,10,15,27,8.90
2011,04,10,15,28,8.90
2011,04,10,15,29,9.00
2011,04,10,15,30,9.00
2011,04,10,15,31,9.00
2011,04,10,15,32,9.00
2011,04,10,15,33,9.00
2011,04,10,15,34,9.10
2011,04,10,15,35,9.10
2011,04,10,15,36,9.20
2011,04,10,15,37,9.20
2011,04,10,15,38,9.30
2011,04,10,15,39,9.20
2011,04,10,15,40,9.20
2011,04,10,15,41,9.20
2011,04,10,15,42,9.20
2011,04,10,15,43,9.20
2011,04,10,15,44,9.30
2011,04,10,15,45,9.30
2011,04,10,15,46,9.40
2011,04,10,15,47,9.40
2011,04,10,15,48,9.50
2011,04,10,15,49,9.60
2011,04,10,15,50,9.60
2011,04,10,15,51,9.60
2011,04,10,15,52,9.60
2011,04,10,15,53,9.60
2011,04,10,15,54,9.70
2011,04,10,15,55,9.70
2011,04,10,15,56,9.70
2011,04,10,15,57,9.70
2011,04,10,15,58,9.70
2011,04,10,15,59,9.80
2011,04,10,16,00,9.80
2011,04,10,16,01,9.80
2011,04,10,16,02,9.80
2011,04,10,16,03,9.80
2011,04,10,16,04,9.80
2011,04,10,16,05,9.80
2011,04,10,16,06,9.80
2011,04,10,16,07,9.80
2011,04,10,16,08,9.80
2011,04,10,16,09,9.80
2011,04,10,16,10,9.80
2011,04,10,16,11,9.80
2011,04,10,16,12,9.80
2011,04,10,16,13,9.80
2011,04,10,16,14,9.80
2011,04,10,16,15,9.80
2011,04,10,16,16,9.80
2011,04,10,16,17,9.80
2011,04,10,16,18,9.90
2011,04,10,16,19,9.90
2011,04,10,16,20,9.90
2011,04,10,16,21,9.90
2011,04,10,16,22,9.90
2011,04,10,16,23,10.00
2011,04,10,16,24,10.00
2011,04,10,16,25,10.10
2011,04,10,16,26,10.10
2011,04,10,16,27,10.10
2011,04,10,16,28,10.10
2011,04,10,16,29,10.10
2011,04,10,16,30,10.10
2011,04,10,16,31,10.00
2011,04,10,16,32,10.00
2011,04,10,16,33,10.00
2011,04,10,16,34,9.90
2011,04,10,16,35,10.00
2011,04,10,16,36,10.00
2011,04,10,16,37,10.00
2011,04,10,16,38,9.90
2011,04,10,16,39,9.90
2011,04,10,16,40,9.90
2011,04,10,16,41,9.80
2011,04,10,16,42,9.90
2011,04,10,16,43,9.90
2011,04,10,16,44,9.90
2011,04,10,16,45,9.90
2011,04,10,16,46,9.90
2011,04,10,16,47,9.90
2011,04,10,16,48,9.90
2011,04,10,16,49,10.00
2011,04,10,16,50,10.00
2011,04,10,16,51,10.00
2011,04,10,16,52,10.10
2011,04,10,16,53,10.10
2011,04,10,16,54,10.10
2011,04,10,16,55,10.10
2011,04,10,16,56,10.10
2011,04,10,16,57,10.10
2011,04,10,16,58,10.10
2011,04,10,16,59,10.00
2011,04,10,17,00,10.00
2011,04,10,17,01,10.00
2011,04,10,17,02,10.00
2011,04,10,17,03,9.90
2011,04,10,17,04,9.90
2011,04,10,17,05,9.90
2011,04,10,17,06,9.90
2011,04,10,17,07,9.90
2011,04,10,17,08,9.90
2011,04,10,17,09,9.90
2011,04,10,17,10,9.90
2011,04,10,17,11,9.90
2011,04,10,17,12,9.90
2011,04,10,17,13,9.90
2011,04,10,17,14,9.90
2011,04,10,17,15,10.00
2011,04,10,17,16,10.00
2011,04,10,17,17,10.00
2011,04,10,17,18,9.90
2011,04,10,17,19,9.90
2011,04,10,17,20,9.80
2011,04,10,17,21,9.80
2011,04,10,17,22,9.80
2011,04,10,17,23,9.80
2011,04,10,17,24,9.70
2011,04,10,17,25,9.70
2011,04,10,17,26,9.70
2011,04,10,17,27,9.60
2011,04,10,17,28,9.60
2011,04,10,17,29,9.60
2011,04,10,17,30,9.50
2011,04,10,17,31,9.50
2011,04,10,17,32,9.50
2011,04,10,17,33,9.40
2011,04,10,17,34,9.30
2011,04,10,17,35,9.30
2011,04,10,17,36,9.30
2011,04,10,17,37,9.30
2011,04,10,17,38,9.20
2011,04,10,17,39,9.30
2011,04,10,17,40,9.30
2011,04,10,17,41,9.30
2011,04,10,17,42,9.30
2011,04,10,17,43,9.20
2011,04,10,17,44,9.20
2011,04,10,17,45,9.20
2011,04,10,17,46,9.20
2011,04,10,17,47,9.10
2011,04,10,17,48,9.10
2011,04,10,17,49,9.10
2011,04,10,17,50,9.10
2011,04,10,17,51,9.10
2011,04,10,17,52,9.10
2011,04,10,17,53,9.10
2011,04,10,17,54,9.10
2011,04,10,17,55,9.10
2011,04,10,17,56,9.00
2011,04,10,17,57,9.00
2011,04,10,17,58,9.00
2011,04,10,17,59,9.00
2011,04,10,18,00,9.00
2011,04,10,18,01,8.90
2011,04,10,18,02,8.90
2011,04,10,18,03,8.90
2011,04,10,18,04,8.90
2011,04,10,18,05,8.80
2011,04,10,18,06,8.80
2011,04,10,18,07,8.80
2011,04,10,18,08,8.80
2011,04,10,18,09,8.80
2011,04,10,18,10,8.80
2011,04,10,18,11,8.70
2011,04,10,18,12,8.70
2011,04,10,18,13,8.70
2011,04,10,18,14,8.70
2011,04,10,18,15,8.70
2011,04,10,18,16,8.70
2011,04,10,18,17,8.70
2011,04,10,18,18,8.70
2011,04,10,18,19,8.70
2011,04,10,18,20,8.60
2011,04,10,18,21,8.60
2011,04,10,18,22,8.60
2011,04,10,18,23,8.60
2011,04,10,18,24,8.60
2011,04,10,18,25,8.60
2011,04,10,18,26,8.60
2011,04,10,18,27,8.60
2011,04,10,18,28,8.60
2011,04,10,18,29,8.60
2011,04,10,18,30,8.60
2011,04,10,18,31,8.60
2011,04,10,18,32,8.60
2011,04,10,18,33,8.60
2011,04,10,18,34,8.60
2011,04,10,18,35,8.60
2011,04,10,18,36,8.60
2011,04,10,18,37,8.60
2011,04,10,18,38,8.60
2011,04,10,18,39,8.70
2011,04,10,18,40,8.70
2011,04,10,18,41,8.70
2011,04,10,18,42,8.70
2011,04,10,18,43,8.70
2011,04,10,18,44,8.70
2011,04,10,18,45,8.70
2011,04,10,18,46,8.70
2011,04,10,18,47,8.70
2011,04,10,18,48,8.70
2011,04,10,18,49,8.70
2011,04,10,18,50,8.70
2011,04,10,18,51,8.80
2011,04,10,18,52,8.80
2011,04,10,18,53,8.80
2011,04,10,18,54,8.80
2011,04,10,18,55,8.80
2011,04,10,18,56,8.70
2011,04,10,18,57,8.70
2011,04,10,18,58,8.70
2011,04,10,18,59,8.70
2011,04,10,19,00,8.70
2011,04,10,19,01,8.70
2011,04,10,19,02,8.70
2011,04,10,19,03,8.70
2011,04,10,19,04,8.70
2011,04,10,19,05,8.70
2011,04,10,19,06,8.70
2011,04,10,19,07,8.70
2011,04,10,19,08,8.70
2011,04,10,19,09,8.70
2011,04,10,19,10,8.70
2011,04,10,19,11,8.70
2011,04,10,19,12,8.70
2011,04,10,19,13,8.70
2011,04,10,19,14,8.70
2011,04,10,19,15,8.70
2011,04,10,19,16,8.70
2011,04,10,19,17,8.70
2011,04,10,19,18,8.70
2011,04,10,19,19,8.70
2011,04,10,19,20,8.70
2011,04,10,19,21,8.70
2011,04,10,19,22,8.70
2011,04,10,19,23,8.70
2011,04,10,19,24,8.70
2011,04,10,19,25,8.70
2011,04,10,19,26,8.70
2011,04,10,19,27,8.70
2011,04,10,19,28,8.70
2011,04,10,19,29,8.70
2011,04,10,19,30,8.70
2011,04,10,19,31,8.70
2011,04,10,19,32,8.70
2011,04,10,19,33,8.70
2011,04,10,19,34,8.70
2011,04,10,19,35,8.60
2011,04,10,19,36,8.60
2011,04,10,19,37,8.60
2011,04,10,19,38,8.60
2011,04,10,19,39,8.60
2011,04,10,19,40,8.60
2011,04,10,19,41,8.60
2011,04,10,19,42,8.60
2011,04,10,19,43,8.60
2011,04,10,19,44,8.60
2011,04,10,19,45,8.60
2011,04,10,19,46,8.60
2011,04,10,19,47,8.60
2011,04,10,19,48,8.60
2011,04,10,19,49,8.60
2011,04,10,19,50,8.60
2011,04,10,19,51,8.60
2011,04,10,19,52,8.60
2011,04,10,19,53,8.60
2011,04,10,19,54,8.60
2011,04,10,19,55,8.60
2011,04,10,19,56,8.60
2011,04,10,19,57,8.60
2011,04,10,19,58,8.60
2011,04,10,19,59,8.60
2011,04,10,20,00,8.60
2011,04,10,20,01,8.60
2011,04,10,20,02,8.60
2011,04,10,20,03,8.60
2011,04,10,20,04,8.60
2011,04,10,20,05,8.60
2011,04,10,20,06,8.60
2011,04,10,20,07,8.60
2011,04,10,20,08,8.60
2011,04,10,20,09,8.60
2011,04,10,20,10,8.60
2011,04,10,20,11,8.60
2011,04,10,20,12,8.60
2011,04,10,20,13,8.60
2011,04,10,20,14,8.60
2011,04,10,20,15,8.60
2011,04,10,20,16,8.60
2011,04,10,20,17,8.60
2011,04,10,20,18,8.60
2011,04,10,20,19,8.60
2011,04,10,20,20,8.60
2011,04,10,20,21,8.60
2011,04,10,20,22,8.60
2011,04,10,20,23,8.60
2011,04,10,20,24,8.60
2011,04,10,20,25,8.60
2011,04,10,20,26,8.60
2011,04,10,20,27,8.50
2011,04,10,20,28,8.50
2011,04,10,20,29,8.50
2011,04,10,20,30,8.50
2011,04,10,20,31,8.50
2011,04,10,20,32,8.50
2011,04,10,20,33,8.50
2011,04,10,20,34,8.50
2011,04,10,20,35,8.50
2011,04,10,20,36,8.50
2011,04,10,20,37,8.50
2011,04,10,20,38,8.50
2011,04,10,20,39,8.40
2011,04,10,20,40,8.40
2011,04,10,20,41,8.40
2011,04,10,20,42,8.40
2011,04,10,20,43,8.40
2011,04,10,20,44,8.40
2011,04,10,20,45,8.40
2011,04,10,20,46,8.40
2011,04,10,20,47,8.40
2011,04,10,20,48,8.40
2011,04,10,20,49,8.40
2011,04,10,20,50,8.30
2011,04,10,20,51,8.30
2011,04,10,20,52,8.30
2011,04,10,20,53,8.30
2011,04,10,20,54,8.30
2011,04,10,20,55,8.30
2011,04,10,20,56,8.30
2011,04,10,20,57,8.30